Location: ????
(30.1475°N, 31.1342°E)
Time: 02:24:15
(UTC+00:00)

ARIANE 5 R/B - Pass Details

Date: 03 April 2023
Orbit: 748 x 794 km, 98.8° (Epoch: 29 May)

Event Time Altitude Azimuth Distance (km) Brightness Sun altitude
Rises 01:36:19 0° 21° (NNE) 3,287 6.4 -27.2°
Reaches altitude 10° 01:38:44 10° 27° (NNE) 2,359 5.6 -26.7°
Maximum altitude 01:43:44 46° 100° (E) 1,057 3.5 -25.7°
Enters shadow 01:47:51 15° 169° (S) 2,039 4.6 -24.9°
